Location: Newark
(49.8969°N, 3.3422°E)
Time: 20:07:58
(UTC+00:00)

Explorer 7 - Pass Details

Date: 26 January 2020
Orbit: 485 x 679 km, 50.3° (Epoch: 26 February)

Event Time Altitude Azimuth Distance (km) Brightness Sun altitude
Rises 22:40:04 0° 237° (WSW) 2,566 - -55.0°
Reaches altitude 10° 22:42:17 10° 232° (SW) 1,674 - -55.2°
Maximum altitude 22:45:56 50° 156° (SSE) 622 - -55.5°
Drops below altitude 10° 22:49:35 10° 80° (E) 1,673 - -55.8°
Sets 22:51:48 0° 76° (ENE) 2,566 - -56.0°
